GFSNIL_con_sbcape_024.txt.gz
CAPE
3684 3044 2953 3048 2212 1179 328 342 884 935 904 883 828 628 331 93 144 81 90 83 198 25
3608 3245 3036 2844 2966 1604 1101 374 602 857 827 873 822 450 331 180 218 162 108 60 198 216
3020 3197 3303 3193 2818 1797 1202 626 492 715 702 686 611 352 588 192 156 228 47 69 107 296
2929 2933 3104 2861 2536 1840 1032 809 936 1018 637 726 443 525 688 440 81 190 289 268 247 312
3181 3081 2967 2625 1815 1101 732 485 693 601 734 692 658 661 569 441 97 238 307 252 320 365
2970 2749 2319 1939 1285 497 398 331 122 430 487 470 602 906 800 528 329 323 293 313 396 386
2970 2731 2358 2117 889 291 352 357 327 89 480 717 754 592 429 552 516 430 417 539 604 558
3507 2176 1921 2540 1446 1041 776 406 186 129 239 479 392 225 526 522 527 601 745 735 674 709
2772 1877 2360 1952 1427 889 908 714 414 245 270 410 201 0 24 424 496 597 893 881 815 782
2740 2145 1893 1753 1308 1374 601 248 561 413 391 386 390 21 9 23 397 553 1150 1089 1199 889
2732 2194 1992 1935 1444 959 371 537 504 539 591 689 469 255 3 0 365 813 1124 220 167 203
2368 2256 1986 1890 1616 1062 779 617 758 641 689 1112 961 24 0 0 440 575 114 97 94 101
2349 2270 2119 1639 1769 1392 885 685 597 851 1218 672 1043 0 0 12 641 330 153 93 47 0
2409 2161 2039 1642 1497 1072 947 892 889 897 1031 1044 1155 828 0 0 232 193 258 118 27 41

GFSNIL_con_sbcape_027.txt.gz
CAPE
4949 3184 2952 3368 2044 1439 583 519 2514 1860 1809 1104 1325 1212 765 181 138 217 141 89 80 10
4862 4595 2957 3556 4148 2295 2246 631 1679 1504 1335 1537 810 691 513 269 216 215 265 126 210 175
4624 4702 4602 4695 4447 3631 2934 1595 1821 1399 1504 1447 1189 1384 1317 837 888 549 183 49 357 159
4386 4116 4476 4001 4178 4025 3621 2597 1914 1882 1641 1550 966 1128 1369 1190 445 474 675 402 505 758
4515 4327 4137 4291 4215 4231 3532 2788 2086 1927 1592 1302 1147 1080 1180 840 368 352 462 756 941 403
4566 4400 4235 4425 4398 4109 3316 2508 1699 1844 1599 1038 1014 1161 1253 1011 956 696 363 365 397 361
4568 4557 4395 4630 4302 3892 2937 2299 1714 1542 1506 978 1043 693 1006 685 682 543 530 394 815 506
4737 4749 4776 4371 4141 3359 2813 1543 1564 1536 627 594 264 431 1125 846 640 789 532 772 586 1161
4828 4783 4537 4143 4175 3150 2160 1561 1426 1060 400 471 510 221 138 746 541 1169 1194 1276 1349 1317
4844 4751 4167 3588 3632 3033 2342 1698 1460 1035 737 766 996 7 0 1 612 975 1336 1349 1502 1158
4651 4297 3634 3347 3651 3245 2442 1854 1123 1147 1004 1094 1180 67 0 0 621 1136 1324 1345 1327 1212
4204 4105 3575 2751 3104 3081 2693 1804 1458 1156 1151 1235 1320 281 13 0 447 696 1355 1509 767 589
4036 3614 3029 2778 2787 2912 2387 1926 1219 989 1222 809 1226 701 7 4 1725 1507 915 1431 951 26
3192 3311 3118 2974 2766 2082 1474 1153 1205 929 808 975 1057 1266 0 0 1536 1313 1536 954 642 236

GFSNIL_con_sbcape_030.txt.gz
CAPE
3728 3920 3662 3526 3059 1978 2169 1447 2010 2354 2619 2165 1718 1706 1221 797 500 727 668 424 764 324
4229 3728 3325 3630 3193 3392 2530 2848 2021 2071 2398 1999 1693 1332 1370 791 661 856 1176 818 938 822
4262 4227 3696 3475 3639 2591 3657 2635 2293 2087 2052 1829 1710 1549 1620 854 1239 1125 1094 795 875 903
4198 4370 3864 3580 3270 3449 3234 2815 2164 1950 1759 1807 1705 1546 1336 1136 1113 1039 956 568 706 459
4331 4312 4233 3392 3868 3857 3226 2902 2061 1928 1854 1619 1485 1407 1323 837 489 974 1050 957 1025 820
4199 4176 4030 3955 3239 3725 3594 3179 2167 1972 1761 1657 1332 1298 1119 1036 854 909 398 932 930 830
4185 4099 3934 3950 3837 3865 3940 3402 2329 1970 1741 1483 1218 1265 1099 1182 1121 827 736 852 852 922
4286 4208 4224 4053 4072 3958 3945 3472 2578 1936 1714 1356 771 1071 997 1128 991 884 792 777 873 908
4037 4383 4426 4331 4270 3978 3852 3244 2560 1799 1417 1146 649 456 267 906 866 973 891 866 1211 1180
4218 4460 4438 4453 4217 4060 3734 3079 2238 1695 1260 863 803 153 53 475 752 801 856 1086 1240 1303
4427 4587 4573 4458 4228 4014 3607 2682 1916 1519 1097 858 1143 272 0 53 291 527 1123 853 1301 1285
4623 4723 4577 4313 4064 3565 3326 2239 1766 1324 1169 1199 1335 280 0 0 102 119 462 789 1191 1268
4795 4658 4418 4070 3702 3840 3496 2336 1481 1116 1170 1112 1217 209 3 0 151 129 552 1075 998 564
4694 4650 4426 3709 3235 3114 2899 2649 1794 1265 990 1265 968 1098 47 0 427 1012 1043 839 971 1181

GFSNIL_con_sbcape_033.txt.gz
CAPE
1949 2590 1744 1747 1885 762 771 515 793 1404 1243 858 486 153 192 36 128 67 0 4 0 16
1864 2051 2759 2125 1419 1656 882 701 635 1484 1361 911 434 474 287 94 30 63 13 0 37 0
2514 2227 2301 2580 2087 1725 1692 1373 737 1492 1364 939 586 484 242 151 247 160 181 24 4 10
2872 2816 2487 2371 2230 1915 1440 1164 1042 1440 1297 991 835 526 392 181 206 361 45 174 10 104
2903 3206 3107 2614 2205 2077 1689 1327 1238 1159 1214 971 837 560 525 315 287 150 276 92 19 0
3185 3080 3366 3047 2594 2273 2195 1702 1225 1126 1043 1046 922 718 519 338 165 347 212 230 102 37
3321 3296 3315 3415 2705 2572 2618 2074 1250 1134 1005 940 918 687 658 456 305 236 224 252 246 132
3343 3414 3442 3352 3161 2394 2739 2514 1500 1105 1115 1004 864 652 591 524 442 395 308 262 321 227
3098 3462 3419 3295 3236 2996 2591 2885 2036 1339 1175 932 954 733 681 564 596 482 421 302 292 244
3075 3361 3409 3358 3252 3281 2902 3127 2370 1627 1214 896 740 459 443 501 527 558 458 409 314 459
2881 3390 3552 3508 3414 3372 3256 2822 2214 1548 1120 687 508 195 31 119 403 371 338 466 441 425
2959 3351 3655 3643 3558 3391 3160 2595 1779 1128 824 626 485 416 168 0 87 190 205 378 572 565
3017 3469 3849 3721 3496 3082 2553 2091 1212 979 772 612 707 499 147 0 22 25 22 37 209 455
3698 3963 3910 3488 3133 2882 2098 1668 1257 987 768 680 789 395 0 0 5 2 5 143 342 362

GFSNIL_con_sbcape_036.txt.gz
CAPE
1262 1116 661 412 627 763 581 608 863 577 564 34 0 0 0 0 0 0 0 0 0 0
1241 1782 1709 1021 775 297 202 105 615 499 626 132 38 0 0 0 0 2 0 0 0 0
994 1379 1791 1452 1092 821 297 362 274 519 559 337 109 22 4 0 0 0 0 0 0 0
1184 1029 1375 1865 1745 1076 833 439 226 770 750 554 201 113 24 2 3 0 0 1 0 0
1597 1512 1241 1405 1814 1674 1104 828 514 517 993 765 447 156 124 11 55 90 3 0 2 0
2106 2065 1872 1684 1560 1970 1714 947 738 682 921 846 673 322 184 77 40 6 73 25 1 0
2236 2438 2404 2243 1927 1818 1966 1367 988 832 941 852 677 524 288 182 64 55 39 28 16 3
2374 2530 2647 2738 2602 2224 1942 1921 1284 956 732 696 654 592 409 307 185 90 53 47 116 140
2749 2766 2698 2824 2979 2524 2268 2155 1392 1034 779 582 772 709 430 488 380 225 144 109 82 205
2905 2959 2933 2867 3017 2885 2391 2455 1524 996 874 813 850 577 320 337 459 336 312 168 65 162
2948 2945 3016 3061 2998 2951 2578 2368 1909 1173 980 895 899 439 98 172 565 325 306 251 170 185
2839 2839 3097 3091 3036 2945 2952 2514 2350 1467 1208 1102 990 170 19 68 512 203 201 178 219 273
2733 2858 3040 3154 3107 3044 3021 2651 2111 1568 1375 1130 1054 105 0 0 3 122 248 21 212 345
2451 2664 3022 3171 3199 3072 2862 2106 1834 1422 1010 489 460 153 0 0 2 26 22 65 42 59

GFSNIL_con_sbcape_042.txt.gz
CAPE
442 360 386 251 284 320 512 715 876 821 769 388 173 51 0 0 0 0 0 0 0 0
494 504 405 360 102 237 449 606 681 837 875 439 153 11 0 0 0 0 0 0 0 0
561 525 503 406 97 154 242 488 530 725 839 497 180 4 0 0 0 0 0 0 0 0
681 630 546 477 288 207 200 249 401 603 718 598 206 32 0 0 0 0 0 0 0 0
799 712 605 554 490 377 282 147 234 503 646 670 324 111 48 6 0 0 0 0 0 0
847 850 795 762 844 648 521 277 173 376 571 605 510 254 133 102 55 32 19 0 0 0
798 834 925 1008 1071 1121 872 580 304 289 517 578 564 443 321 207 156 103 71 18 0 0
788 770 801 857 987 1129 1293 1086 674 481 400 495 561 510 435 376 261 169 144 74 18 0
976 986 906 866 838 905 1242 1424 1174 1036 716 546 639 534 291 376 407 271 264 151 44 46
1081 1193 1169 1089 979 861 881 1167 1411 1250 1108 855 821 477 203 219 594 503 408 302 69 36
1219 1263 1380 1368 1330 1254 1086 941 1057 1276 1255 1212 1119 438 125 169 708 553 452 246 76 97
1478 1453 1452 1616 1684 1626 1568 1456 1294 1298 1309 1138 1134 278 78 70 643 471 385 242 209 101
1644 1673 1615 1706 1867 1917 1950 1962 1858 1683 1473 1267 1295 161 9 71 565 551 469 338 174 76
1931 1949 1926 1882 1911 2056 2086 2248 2258 2121 1947 1387 1194 685 0 6 606 648 503 228 91 49

GFSNIL_con_sbcape_045.txt.gz
CAPE
1960 1652 1698 1800 1323 1244 1269 1361 2002 2222 2314 2400 2238 2083 1674 1113 718 420 203 166 92 63
1833 1860 1716 2070 2174 1392 2081 1394 1656 1964 2149 2296 2229 2119 1717 1206 795 275 267 225 200 95
1707 1862 1915 2074 2136 2055 2255 1954 1721 2163 2460 2520 2253 2117 1759 1370 1043 469 227 161 205 156
1726 1828 1990 2011 2138 2147 2308 2424 2408 2248 2382 2394 2223 2095 1810 1535 1077 648 537 240 252 242
1922 1974 1992 2050 2108 2162 2220 2330 2430 2453 2244 2258 2220 2146 1859 1604 1158 905 716 515 315 231
1957 1949 1993 2055 2191 2242 2189 2242 2202 2264 2409 2161 2178 2081 1904 1766 1465 1038 879 678 571 400
1868 1962 1963 2074 2197 2249 2238 2223 2282 2267 2369 2446 2332 2066 1817 1696 1627 1319 1018 840 755 617
2081 2183 2215 2249 2245 2303 2371 2220 2282 2203 2234 2352 2343 1825 2107 1867 1732 1558 1302 1084 883 777
2128 2245 2268 2325 2369 2419 2438 2428 2440 2277 2206 2238 1849 1259 1016 1649 1885 1587 1801 1831 1289 976
2188 2230 2314 2357 2446 2507 2566 2662 2591 2490 2302 2247 2247 707 331 468 2152 2103 2178 2157 1911 1250
2289 2287 2327 2364 2370 2399 2454 2594 2752 2684 2624 2402 2249 632 102 199 1635 2383 2462 2249 1994 1625
2252 2377 2483 2484 2416 2375 2341 2357 2452 2740 2848 2783 2646 557 32 68 1444 2166 2490 2065 1856 1515
2380 2435 2508 2591 2579 2593 2503 2390 1999 2424 2760 2427 2875 840 0 45 1565 2016 2076 1762 1715 344
2651 2682 2533 2701 2767 2858 2594 2600 2822 2761 2690 2782 2461 2392 0 0 1648 1926 1640 1206 903 452

GFSNIL_con_sbcape_048.txt.gz
CAPE
3643 1945 1845 2506 1737 1639 1535 1246 1637 2010 2396 2751 2560 2949 2926 2613 2171 1732 1670 1106 529 0
3384 3267 2229 3138 3234 2047 2801 1535 1650 1858 2359 2411 2643 2919 3017 2631 2401 1746 1840 1315 994 285
3198 3385 3410 3557 3535 3421 3307 2958 2022 2129 2101 2434 2642 2945 3145 2748 2583 2232 1623 1172 1032 783
3139 2788 3189 2976 3599 3705 3763 3824 3255 2983 2433 2222 2688 3187 3314 3216 2556 2424 1986 1276 1033 1104
3424 3332 3080 3317 3440 3649 3719 4009 4022 3452 3142 2733 2586 3320 3272 3074 2476 2491 2153 1631 1260 1130
3307 3330 3503 3635 3565 3591 3723 3917 3577 3867 3981 3532 3127 3233 3200 3035 2841 2568 2353 1877 1722 1255
3343 3405 3398 3554 3573 3562 3758 3901 4008 4007 4187 3940 3597 3317 3056 2845 2920 2941 2458 2172 1785 1571
3304 3560 3626 3687 3705 3769 3854 3836 3920 4000 4063 3934 3570 2623 3369 3465 3369 3530 2922 2468 2074 1742
3403 3742 3674 3727 3827 3898 3868 3961 4017 3946 3928 3778 2983 1773 1131 2574 3397 3493 3516 3422 3002 2376
3535 3696 3784 3602 3754 3947 3967 3776 3996 3922 3915 3880 3837 1751 586 979 3262 3472 3745 3805 3600 2402
3640 3655 3760 3894 3909 4044 3914 3844 4063 4026 3988 3966 3847 2227 307 365 2628 3331 3819 3855 3815 3720
3539 3748 3876 3963 3975 4053 3596 3619 3381 3484 4004 4265 3733 1725 191 117 2310 2748 3562 3965 3869 3777
3719 3894 3956 3941 3920 3714 3635 2997 2815 2895 3602 3221 3645 2982 231 0 1792 2249 2285 3149 3353 2069
3926 4160 4076 4208 4001 3790 3507 3418 3601 3367 3664 3515 3425 3527 1345 0 1003 1518 1790 2330 2556 2919